Regional Weather Roundup
Issued by NWS Charleston, SC

Current Version | Previous Version | Text Only | Print | Product List | Glossary Off
Versions: 1 2 3 4 5 6 7 8 9 10 11 12 13 14 15 16 17 18 19 20 21 22 23 24 25 26 27 28 29 30 31 32 33 34 35 36 37 38 39 40 41 42 43 44 45 46 47 48 49 50
000 ASUS42 KCHS 301412 RWRCHS REGIONAL WEATHER ROUNDUP NATIONAL WEATHER SERVICE CHARLESTON SC 1000 AM EDT SUN AUG 30 2015 NOTE: "FAIR" INDICATES FEW OR NO CLOUDS BELOW 12,000 FEET WITH NO SIGNIFICANT WEATHER AND/OR OBSTRUCTIONS TO VISIBILITY. NOT ALL STATIONS ARE QUALITY CONTROLLED BY THE NATIONAL WEATHER SERVICE. USE DATA WITH CAUTION...ESPECIALLY DEWPOINT OBSERVATIONS. SCZ027-030-031-034>040-042>050-301500- ...SOUTHEAST SOUTH CAROLINA... CITY SKY/WX TMP DP RH WIND PRES REMARKS N CHARLESTON LGT RAIN 76 74 93 NE3 30.11S WATERFRONT PRK N/A 77 74 91 NE6 30.08S MOUNT PLEASANT FAIR 75 75 100 CALM 30.11F JOHNS ISLAND FAIR 77 75 94 CALM 30.11S PINOPOLIS N/A 77 72 83 VRB3 30.04R MONCKS CORNER N/A 75 72 88 CALM 30.13R FOG SUMMERVILLE FAIR 73 73 100 CALM 30.13R BEAUFORT MCAS CLOUDY 77 75 93 CALM 30.11R BEAUFORT ARPT PTSUNNY 77 77 100 CALM 30.10R FOG HILTON HEAD IS PTSUNNY 79 75 89 E5 30.11R WALTERBORO CLOUDY 75 72 88 E3 30.14R ALLENDALE FAIR 72 72 100 CALM 30.11S FOG ...SOUTHERN MIDLANDS AND PEE DEE... CITY SKY/WX TMP DP RH WIND PRES REMARKS GEORGETOWN NOT AVBL KINGSTREE NOT AVBL ORANGEBURG LGT RAIN 73 67 81 NE8 30.13R BARNWELL PTSUNNY 73 72 94 NE5 30.13S AIKEN NOT AVBL MANNING FAIR 72 68 88 N3 30.13S COLUMBIA LGT RAIN 73 63 70 N6 30.14R SUMTER DRIZZLE 75 63 64 NE6 30.13R FLORENCE CLOUDY 75 67 76 NE3 30.15R MYRTLE BEACH PTSUNNY 81 70 69 E12 30.17R N MYRTLE BEACH CLOUDY 77 71 82 NE8 30.15R $$ GAZ063-065-086>088-099>101-113>116-118-119-134>141-150-301500- ...SOUTHEAST GEORGIA... CITY SKY/WX TMP DP RH WIND PRES REMARKS SAVANNAH ARPT CLOUDY 76 73 91 NE6 30.10R HUNTER AAF CLOUDY 76 76 100 NE3 30.07R FORT STEWART CLOUDY 75 72 91 CALM 30.07R STATESBORO CLOUDY 74 32 21 CALM 30.10S SYLVANIA CLOUDY 75 74 99 CALM 30.12R CLAXTON NOT AVBL ...CSRA...CENTRAL AND FAR SOUTHEAST GEORGIA... CITY SKY/WX TMP DP RH WIND PRES REMARKS THOMSON CLOUDY 72 72 100 NE3 30.18S AUGUSTA-BUSH LGT RAIN 72 69 90 NW3 30.12R AUGUSTA-DANIEL LGT RAIN 76 69 79 N3 30.13S SWAINSBORO CLOUDY N/A N/A N/A CALM 30.12R VIDALIA CLOUDY 75 72 88 NE3 30.09F EASTMAN CLOUDY 76 76 100 CALM 30.11S HAZLEHURST FAIR 77 77 100 CALM 30.07F ALMA PTSUNNY 77 73 87 NE3 30.08S WAYCROSS PTSUNNY 80 78 92 E5 30.07S JESUP PTSUNNY 81 77 89 CALM 30.08S BAXLEY FAIR 79 73 83 NE3 30.08S BRUNSWICK PTSUNNY 81 73 78 NE5 30.07S SAINT SIMONS PTSUNNY 84 75 74 E7 30.05S HX 92 $$ SCZ027-028-034-036>038-045-046-048>050-GAZ119-141-301500- ...LAKE AND SUPPLEMENTAL COASTAL OBSERVATIONS... STATION/POSITION TIME TEMP WIND PRES WAVE SWELL AIR SEA DIR/SP/G HT/PER HT/PER/DIR (UTC) (F) (DEG/KT/KT) (MB) (FT/S) (FT/S/D) UPR LAKE MARION NOT AVBL WINYAH BAY NOT AVBL LAKE MURRAY 1300 73 10/ 2/ 3 1020.0S ACE BASIN NERRS NOT AVBL FORT PULASKI NOT AVBL SAPELO ISLAND 1300 79 100/ 2 1018.0S $$ ANZ835-935-AMZ111-154-330-350-352-354-370-450-454-472-301500- ...C-MAN AND BUOY OBSERVATIONS... STATION/POSITION TIME TEMP WIND PRES WAVE SWELL AIR SEA DIR/SP/G HT/PER HT/PER/DIR (UTC) (F) (DEG/KT/KT) (MB) (FT/S) (FT/S/D) BUOY 41004 1350 78 85 90/ 6/ 10 1019.6R 4/11 3/11 BUOY 41008 1250 81 84 110/ 6/ 8 1018.5 5/11 5/ 90/11 FOLLY BEACH CMAN 1300 77 30/ 3/ 4 1019.6R CAPERS NEARSHORE NOT AVBL FRIPP NEARSHORE NOT AVBL STATION/POSITION TIME TEMP WIND PRES WAVE SWELL AIR SEA DIR/SP/G HT/PER HT/PER/DIR (UTC) (F) (DEG/KT/KT) (MB) (FT/S) (FT/S/D) 5E ST. MARYS GA 1321 86 N/A 4/10 2/100/11 FRYING PAN BUOY 1350 80 82 80/ 10/ 12 1021.5R 4/10 3/130/10 BUOY 41025 1350 78 84 360/ 10/ 14 1020.6R 4/10 3/ 90/10 CAPE LOOKOUT NC 1300 76 360/ 8/ 10 1020.3R BUOY 41002 1350 84 84 230/ 4/ 6 1021.3R 4/10 5/140/10 BUOY 41010 1320 85 85 130/ 17/ 19 1017.5R ST AUGUSTINE FL 1400 78 83 90/ 12/ 14 1017.7R $$

USA.gov is the U.S. government's official web portal to all federal, state and local government web resources and services.